Weather History for Chino, CA

Change the Weather History Date:

Monday, October 8, 2012

  Actual Average Record
Temperature  
Mean Temperature 69 °F -  
Max Temperature 81 °F 81 °F 100 °F (2008)
Min Temperature 57 °F 49 °F 46 °F (1998)
Cooling Degree Days 4    
Growing Degree Days 19 (Base 50)    
Moisture  
Dew Point 57 °F    
Average Humidity 83    
Maximum Humidity 100    
Minimum Humidity 39    
Precipitation  
Precipitation 0.01 in - - ()
Sea Level Pressure  
Sea Level Pressure 29.96 in    
Wind  
Wind Speed 1 mph (West)    
Max Wind Speed 14 mph    
Max Gust Speed -    
Visibility 4 miles    
Events Fog    
Averages and records for this station are not official NWS values.
T = Trace of Precipitation, MM = Missing Value Source: NWS Daily Summary

Daily Weather History Graph

Daily Weather History Graph

Search for Another Location

Airport:

Trip Planner

Search our weather history database for the weather conditions in past years. The results will help you decide how hot, cold, wet, or windy it might be!

Date:

Astronomy

Oct. 08, 2012 Rise Set
Actual Time 6:50 AM PDT 6:24 PM PDT
Civil Twilight 6:25 AM PDT 6:49 PM PDT
Nautical Twilight 5:56 AM PDT 7:18 PM PDT
Astronomical Twilight 5:27 AM PDT 7:47 PM PDT
Moon No Moon Rise 2:00 PM PDT (10/8)
Length of Visible Light 12h 24m
Length of Day
11h 34m
Last Quarter, 45% of the Moon is Illuminated
Oct 8
Last Quarter
Oct 15
New
Oct 21
First Quarter
Oct 29
Full
Nov 6
Last Quarter

Hourly Weather History & Observations

Time (PDT) Temp. Heat Index Dew Point Humidity Pressure Visibility Wind Dir Wind Speed Gust Speed Precip Events Conditions
12:53 AM 61.0 °F - 60.1 °F 97% 29.93 in 2.5 mi Calm Calm - N/A   Clear
1:01 AM 62.6 °F - 60.8 °F 94% 29.95 in 0.8 mi Calm Calm - N/A   Clear
1:11 AM 60.8 °F - 57.2 °F 88% 29.95 in 2.0 mi Calm Calm - N/A   Clear
1:20 AM 60.8 °F - 59.0 °F 94% 29.95 in 3.0 mi Calm Calm - N/A   Clear
1:36 AM 60.8 °F - 59.0 °F 94% 29.95 in 2.5 mi Calm Calm - N/A   Clear
1:53 AM 59.0 °F - 57.9 °F 96% 29.94 in 2.5 mi Calm Calm - N/A   Clear
2:23 AM 57.2 °F - 57.2 °F 100% 29.96 in 1.0 mi Calm Calm - N/A   Clear
2:42 AM 57.2 °F - 55.4 °F 94% 29.96 in 2.5 mi Calm Calm - N/A   Clear
2:49 AM 59.0 °F - 55.4 °F 88% 29.96 in 3.0 mi Calm Calm - N/A   Clear
2:53 AM 59.0 °F - 55.9 °F 90% 29.94 in 3.0 mi Calm Calm - N/A   Clear
3:09 AM 59.0 °F - 57.2 °F 94% 29.96 in 2.5 mi Calm Calm - N/A   Clear
3:30 AM 59.0 °F - 57.2 °F 94% 29.95 in 3.0 mi Calm Calm - N/A   Clear
3:53 AM 57.9 °F - 55.9 °F 93% 29.94 in 4.0 mi Calm Calm - N/A   Clear
4:20 AM 57.2 °F - 55.4 °F 94% 29.96 in 2.5 mi Calm Calm - N/A   Clear
4:40 AM 59.0 °F - 57.2 °F 94% 29.96 in 1.2 mi Calm Calm - N/A   Clear
4:53 AM 60.1 °F - 59.0 °F 96% 29.95 in 1.5 mi Calm Calm - N/A   Clear
5:01 AM 57.2 °F - 57.2 °F 100% 29.96 in 0.5 mi Calm Calm - N/A Fog Fog
5:53 AM 57.0 °F - 55.0 °F 93% 29.96 in 0.2 mi Calm Calm - 0.01 in Fog Fog
6:20 AM 57.2 °F - 55.4 °F 94% 29.98 in 1.0 mi Calm Calm - N/A   Overcast
6:45 AM 59.0 °F - 57.2 °F 94% 29.98 in 2.5 mi Calm Calm - N/A   Overcast
6:53 AM 60.1 °F - 57.9 °F 93% 29.97 in 2.5 mi Calm Calm - N/A   Overcast
7:53 AM 61.0 °F - 60.1 °F 97% 29.99 in 0.8 mi Calm Calm - N/A   Overcast
8:53 AM 62.1 °F - 60.1 °F 93% 30.00 in 1.5 mi Calm Calm - N/A   Overcast
9:53 AM 64.0 °F - 60.1 °F 87% 30.00 in 2.0 mi Calm Calm - N/A   Overcast
10:53 AM 69.1 °F - 60.1 °F 73% 29.98 in 3.0 mi Variable 3.5 mph - N/A   Haze
11:53 AM 75.0 °F - 60.1 °F 60% 29.96 in 3.0 mi Calm Calm - N/A   Haze
12:53 PM 79.0 °F - 57.0 °F 47% 29.94 in 7.0 mi WSW 6.9 mph - N/A   Partly Cloudy
1:53 PM 80.1 °F 80.2 °F 55.9 °F 43% 29.92 in 10.0 mi West 11.5 mph - N/A   Partly Cloudy
2:53 PM 81.0 °F 80.5 °F 54.0 °F 39% 29.91 in 10.0 mi West 10.4 mph - N/A   Partly Cloudy
3:53 PM 81.0 °F 80.7 °F 55.0 °F 41% 29.91 in 7.0 mi West 10.4 mph - N/A   Partly Cloudy
4:53 PM 78.1 °F - 57.9 °F 50% 29.91 in 10.0 mi WSW 12.7 mph - N/A   Clear
5:53 PM 73.9 °F - 57.0 °F 55% 29.92 in 10.0 mi WSW 13.8 mph - N/A   Clear
6:53 PM 69.1 °F - 57.9 °F 68% 29.93 in 10.0 mi West 9.2 mph - N/A   Clear
7:53 PM 66.9 °F - 57.9 °F 73% 29.96 in 10.0 mi West 10.4 mph - N/A   Clear
8:53 PM 64.0 °F - 57.0 °F 78% 29.96 in 7.0 mi West 4.6 mph - N/A   Clear
9:53 PM 62.1 °F - 57.9 °F 86% 29.98 in 6.0 mi WNW 3.5 mph - N/A   Clear
10:53 PM 61.0 °F - 57.0 °F 87% 29.99 in 5.0 mi Calm Calm - N/A   Clear
11:53 PM 60.1 °F - 57.0 °F 90% 29.98 in 4.0 mi Calm Calm - N/A   Clear